Temp
-9 -9 -9 -9 -8 -9 -9 -9 -8 -8 -8 -8 -8 -8 -8 -8 -8 -8 -8 -9 -9 -9 -9 -9 -9 -9 -9 -9 -9 -8 -8 -8 -8 -8 -8 -8 -8 -8 -8 -8 -8 -8 -8 -8 -8 -8 -8 -8 -8
-9 -9 -9 -9 -9 -9 -8 -9 -9 -8 -8 -8 -8 -8 -8 -8 -8 -8 -9 -9 -9 -9 -9 -9 -9 -9 -9 -9 -9 -9 -9 -9 -8 -8 -8 -8 -8 -8 -8 -8 -8 -8 -8 -8 -7 -7 -7 -8 -8
-9 -9 -9 -9 -9 -9 -8 -9 -9 -8 -8 -8 -8 -8 -8 -8 -8 -8 -9 -9 -9 -9 -8 -9 -9 -9 -9 -9 -9 -9 -9 -9 -9 -9 -8 -8 -8 -8 -8 -8 -8 -8 -8 -8 -7 -7 -7 -7 -8
-10 -10 -10 -10 -9 -9 -9 -9 -9 -8 -8 -8 -8 -8 -8 -8 -8 -9 -9 -9 -9 -9 -9 -9 -9 -9 -9 -9 -9 -9 -9 -9 -10 -9 -9 -9 -9 -8 -8 -8 -8 -8 -8 -8 -7 -7 -8 -8 -8
-10 -10 -10 -10 -10 -9 -9 -9 -9 -8 -8 -8 -8 -8 -8 -8 -8 -9 -9 -9 -9 -9 -8 -9 -9 -9 -9 -9 -9 -9 -9 -10 -10 -10 -9 -9 -9 -9 -9 -9 -9 -8 -8 -8 -8 -8 -8 -8 -8
-11 -10 -10 -10 -10 -9 -9 -9 -9 -9 -8 -8 -8 -8 -8 -8 -8 -9 -9 -9 -9 -9 -9 -9 -9 -9 -9 -9 -10 -10 -10 -10 -10 -10 -10 -9 -9 -9 -9 -9 -9 -9 -9 -9 -9 -9 -9 -9 -9
-11 -11 -11 -10 -10 -10 -9 -9 -9 -9 -9 -8 -8 -8 -8 -8 -8 -8 -9 -9 -9 -8 -9 -9 -9 -9 -9 -9 -9 -10 -10 -10 -9 -9 -10 -10 -10 -9 -9 -9 -9 -9 -9 -9 -9 -9 -9 -9 -9
-11 -11 -11 -10 -10 -10 -10 -9 -9 -9 -9 -8 -8 -8 -8 -8 -9 -8 -9 -9 -9 -9 -9 -9 -9 -9 -9 -10 -10 -10 -10 -10 -10 -9 -9 -9 -9 -9 -9 -9 -9 -9 -9 -9 -9 -9 -9 -9 -9
-11 -11 -11 -11 -10 -10 -10 -10 -9 -9 -9 -8 -8 -8 -8 -8 -8 -9 -8 -9 -9 -9 -9 -9 -9 -9 -9 -9 -10 -10 -10 -10 -9 -9 -9 -9 -9 -9 -9 -9 -9 -9 -9 -9 -9 -9 -9 -9 -9
-12 -11 -11 -11 -10 -10 -11 -10 -10 -10 -9 -9 -9 -9 -8 -8 -8 -9 -9 -9 -9 -9 -9 -9 -9 -10 -10 -9 -9 -10 -10 -10 -9 -9 -9 -9 -9 -9 -9 -9 -9 -9 -9 -9 -9 -9 -9 -9 -9
-12 -11 -12 -11 -10 -10 -10 -10 -10 -10 -10 -10 -10 -9 -9 -9 -9 -9 -9 -9 -9 -9 -9 -9 -10 -9 -9 -10 -10 -10 -10 -10 -10 -10 -9 -9 -9 -9 -9 -9 -9 -9 -9 -9 -9 -9 -9 -10 -10
-12 -12 -12 -11 -11 -11 -11 -11 -11 -10 -10 -10 -10 -10 -9 -9 -9 -9 -9 -9 -9 -9 -9 -9 -9 -9 -9 -10 -10 -10 -10 -10 -10 -10 -10 -9 -9 -9 -9 -10 -10 -10 -10 -10 -10 -10 -10 -10 -10
-12 -12 -12 -11 -11 -11 -11 -11 -11 -11 -11 -10 -10 -10 -10 -10 -9 -10 -9 -9 -9 -9 -9 -10 -9 -10 -10 -10 -10 -10 -10 -10 -10 -10 -10 -10 -10 -10 -10 -10 -10 -10 -10 -10 -10 -10 -10 -10 -10
-12 -13 -12 -12 -11 -11 -11 -11 -11 -11 -11 -11 -10 -10 -10 -10 -10 -10 -10 -9 -10 -10 -10 -10 -10 -10 -10 -10 -10 -10 -10 -11 -11 -10 -10 -10 -10 -10 -10 -10 -10 -10 -10 -10 -10 -10 -10 -10 -10
-12 -12 -12 -12 -12 -11 -11 -11 -12 -11 -11 -11 -11 -11 -10 -10 -10 -10 -10 -10 -10 -10 -10 -10 -10 -10 -10 -10 -10 -10 -10 -11 -11 -11 -11 -11 -11 -11 -10 -10 -10 -10 -10 -10 -10 -10 -10 -10 -10
-12 -12 -12 -12 -12 -12 -11 -11 -12 -11 -11 -11 -11 -11 -11 -11 -10 -11 -10 -10 -10 -10 -10 -10 -10 -10 -10 -10 -11 -11 -11 -11 -11 -11 -11 -11 -11 -11 -11 -11 -11 -11 -11 -10 -11 -10 -10 -10 -10
-12 -12 -11 -12 -12 -12 -12 -12 -11 -12 -12 -11 -11 -11 -11 -11 -11 -11 -11 -11 -11 -10 -10 -11 -10 -11 -11 -11 -11 -11 -11 -11 -11 -11 -11 -11 -11 -11 -11 -11 -11 -11 -11 -10 -10 -10 -10 -10 -10
-12 -12 -12 -12 -12 -13 -13 -12 -12 -12 -12 -12 -12 -11 -11 -11 -11 -11 -11 -11 -11 -11 -11 -11 -11 -11 -11 -11 -12 -12 -12 -11 -11 -11 -11 -11 -11 -11 -11 -11 -11 -11 -11 -11 -11 -11 -11 -10 -10
-13 -12 -12 -12 -12 -13 -12 -13 -13 -12 -12 -12 -12 -12 -11 -11 -11 -11 -11 -11 -11 -11 -11 -11 -11 -11 -12 -12 -12 -12 -12 -12 -11 -11 -11 -12 -12 -11 -12 -11 -11 -11 -11 -11 -11 -11 -11 -11 -11
-13 -13 -13 -12 -12 -12 -13 -13 -13 -12 -12 -12 -12 -12 -12 -12 -12 -12 -11 -11 -11 -11 -11 -11 -12 -12 -12 -12 -12 -12 -12 -12 -12 -12 -12 -12 -12 -12 -12 -12 -12 -12 -11 -11 -11 -11 -11 -12 -11
-13 -13 -13 -13 -13 -13 -13 -13 -13 -13 -12 -12 -12 -12 -12 -12 -12 -12 -12 -12 -12 -12 -12 -12 -12 -12 -12 -12 -12 -12 -12 -12 -12 -12 -12 -12 -12 -12 -12 -12 -12 -12 -12 -11 -11 -12 -12 -12 -12
-14 -13 -13 -13 -13 -13 -13 -12 -12 -12 -12 -12 -12 -12 -12 -12 -13 -12 -12 -12 -12 -12 -12 -12 -12 -12 -12 -12 -12 -12 -13 -12 -12 -12 -12 -12 -12 -12 -12 -12 -12 -12 -12 -12 -12 -12 -12 -12 -12
-15 -14 -13 -13 -13 -13 -13 -13 -12 -12 -12 -12 -12 -12 -12 -12 -12 -12 -12 -12 -12 -12 -12 -12 -12 -12 -12 -12 -12 -12 -13 -13 -12 -12 -13 -12 -12 -12 -12 -12 -12 -12 -12 -13 -12 -12 -13 -13 -13
-14 -14 -15 -15 -14 -13 -12 -13 -11 -12 -13 -12 -13 -12 -12 -12 -12 -12 -12 -12 -12 -12 -12 -12 -12 -12 -12 -12 -12 -12 -12 -12 -12 -12 -12 -12 -12 -12 -12 -12 -12 -12 -13 -13 -13 -13 -13 -14 -14
-14 -14 -14 -15 -15 -12 -12 -13 -11 -12 -13 -13 -13 -13 -13 -12 -12 -12 -12 -12 -12 -12 -12 -12 -12 -12 -12 -12 -12 -12 -12 -13 -12 -12 -12 -12 -12 -12 -12 -12 -12 -13 -13 -14 -13 -14 -14 -14 -15
-14 -15 -15 -15 -13 -13 -13 -12 -11 -12 -12 -13 -14 -13 -13 -13 -12 -12 -12 -13 -12 -12 -12 -12 -12 -12 -12 -12 -12 -12 -13 -13 -12 -12 -12 -12 -13 -13 -13 -13 -14 -14 -14 -14 -14 -14 -15 -16 -17
-14 -14 -14 -15 -14 -14 -13 -12 -12 -12 -13 -12 -13 -13 -13 -13 -13 -13 -13 -13 -13 -12 -12 -12 -12 -12 -12 -12 -12 -12 -13 -13 -13 -13 -13 -14 -13 -14 -14 -14 -14 -14 -14 -15 -16 -17 -17 -18 -17
-15 -15 -15 -15 -14 -14 -13 -13 -13 -13 -13 -13 -13 -13 -13 -13 -13 -13 -13 -13 -13 -13 -13 -12 -12 -12 -13 -13 -12 -13 -13 -14 -14 -13 -14 -14 -14 -14 -15 -15 -15 -15 -16 -17 -17 -18 -18 -18 -18
-15 -15 -15 -15 -15 -14 -13 -13 -13 -13 -14 -14 -14 -14 -14 -13 -13 -13 -13 -13 -13 -13 -13 -13 -13 -13 -13 -13 -13 -13 -14 -14 -14 -14 -14 -15 -15 -15 -15 -16 -16 -16 -17 -18 -18 -18 -18 -18 -18
-16 -16 -16 -15 -14 -14 -14 -13 -14 -14 -14 -14 -14 -14 -14 -14 -13 -14 -14 -13 -14 -14 -14 -14 -14 -13 -13 -14 -14 -14 -14 -15 -15 -15 -15 -15 -16 -16 -17 -17 -18 -18 -19 -19 -18 -18 -18 -18 -20
Height
5853 5857 5861 5864 5870 5871 5872 5872 5873 5874 5876 5878 5880 5881 5881 5882 5883 5885 5883 5883 5884 5885 5885 5885 5886 5887 5887 5888 5888 5888 5888 5888 5888 5888 5888 5888 5887 5886 5886 5886 5885 5884 5884 5883 5882 5881 5880 5880 5879
5852 5856 5860 5862 5867 5869 5871 5871 5873 5873 5875 5877 5879 5881 5882 5882 5883 5883 5883 5883 5884 5885 5885 5886 5886 5887 5887 5888 5888 5888 5888 5888 5888 5888 5888 5887 5886 5885 5885 5884 5884 5883 5883 5882 5881 5880 5879 5878 5877
5850 5856 5859 5860 5864 5867 5869 5870 5872 5873 5874 5877 5878 5880 5882 5882 5882 5883 5884 5884 5884 5885 5886 5887 5887 5888 5888 5888 5888 5888 5888 5888 5888 5887 5886 5886 5885 5885 5884 5883 5883 5882 5881 5880 5880 5879 5878 5877 5876
5849 5856 5859 5859 5861 5865 5868 5869 5871 5873 5874 5877 5878 5879 5881 5882 5883 5883 5885 5885 5885 5886 5887 5887 5888 5889 5889 5889 5889 5888 5888 5887 5887 5887 5886 5885 5885 5884 5884 5883 5882 5881 5880 5879 5878 5878 5877 5876 5875
5849 5853 5857 5858 5860 5863 5866 5868 5870 5872 5874 5875 5877 5878 5881 5882 5882 5883 5884 5886 5886 5887 5887 5888 5888 5889 5889 5889 5889 5889 5888 5887 5886 5886 5886 5886 5885 5884 5883 5882 5881 5880 5879 5878 5877 5876 5875 5875 5874
5846 5851 5855 5856 5858 5861 5864 5866 5869 5871 5873 5874 5876 5877 5879 5881 5882 5883 5884 5885 5886 5887 5887 5887 5888 5888 5889 5889 5889 5888 5887 5887 5886 5886 5885 5884 5883 5883 5882 5881 5880 5878 5878 5877 5876 5876 5875 5874 5872
5843 5847 5851 5854 5856 5858 5862 5865 5867 5870 5872 5874 5875 5877 5878 5880 5881 5882 5883 5884 5885 5886 5886 5887 5887 5888 5888 5888 5888 5887 5886 5885 5885 5885 5885 5883 5882 5880 5880 5879 5879 5878 5876 5875 5875 5874 5873 5871 5871
5840 5844 5848 5851 5854 5855 5859 5863 5865 5869 5871 5872 5874 5875 5877 5878 5880 5881 5882 5883 5884 5885 5885 5886 5887 5887 5888 5887 5886 5885 5885 5885 5884 5883 5883 5882 5881 5880 5878 5877 5876 5876 5875 5874 5873 5871 5870 5869 5868
5838 5842 5845 5848 5851 5854 5857 5860 5864 5867 5869 5871 5873 5874 5875 5876 5879 5880 5881 5882 5883 5884 5885 5885 5886 5886 5886 5885 5885 5884 5884 5883 5882 5882 5881 5880 5878 5877 5876 5875 5874 5873 5872 5870 5869 5869 5868 5867 5866
5833 5838 5841 5845 5849 5854 5854 5858 5862 5865 5868 5871 5872 5873 5875 5875 5877 5878 5879 5880 5881 5883 5883 5884 5884 5884 5883 5883 5883 5883 5883 5882 5881 5880 5878 5877 5875 5874 5873 5871 5870 5868 5868 5868 5867 5865 5864 5864 5862
5828 5834 5837 5841 5846 5851 5853 5855 5858 5861 5866 5868 5870 5871 5873 5874 5875 5876 5877 5878 5880 5881 5882 5882 5882 5881 5881 5881 5881 5880 5880 5880 5879 5878 5876 5875 5873 5872 5870 5869 5867 5866 5865 5865 5863 5862 5860 5859 5858
5824 5830 5834 5838 5842 5846 5850 5853 5855 5858 5863 5866 5868 5870 5871 5873 5874 5873 5875 5877 5878 5879 5880 5880 5880 5880 5879 5879 5879 5878 5877 5877 5876 5875 5874 5872 5871 5869 5868 5867 5866 5865 5865 5863 5861 5859 5857 5856 5855
5817 5824 5829 5834 5837 5842 5846 5849 5852 5855 5859 5863 5865 5868 5869 5871 5871 5871 5872 5874 5875 5876 5877 5878 5878 5878 5878 5877 5876 5876 5875 5874 5873 5872 5871 5870 5869 5868 5867 5866 5865 5863 5861 5859 5858 5855 5853 5851 5849
5812 5815 5821 5827 5832 5837 5841 5845 5847 5852 5854 5858 5861 5864 5866 5867 5869 5870 5869 5871 5872 5873 5873 5873 5874 5875 5875 5875 5874 5873 5872 5871 5870 5869 5868 5867 5866 5865 5864 5863 5862 5860 5857 5856 5853 5851 5849 5846 5844
5805 5808 5812 5819 5826 5830 5836 5842 5844 5848 5851 5854 5857 5859 5862 5863 5864 5866 5867 5867 5869 5869 5870 5870 5870 5872 5872 5872 5871 5870 5868 5867 5866 5865 5864 5863 5862 5861 5859 5857 5855 5855 5852 5850 5848 5846 5844 5841 5838
5799 5801 5805 5813 5819 5824 5830 5837 5839 5842 5847 5849 5852 5855 5857 5858 5860 5861 5862 5863 5864 5865 5866 5867 5866 5867 5868 5868 5868 5866 5865 5863 5862 5861 5860 5858 5857 5856 5854 5851 5849 5848 5846 5844 5843 5841 5838 5835 5832
5791 5796 5800 5807 5812 5816 5822 5832 5835 5837 5842 5844 5848 5849 5851 5854 5855 5855 5857 5858 5860 5861 5863 5863 5863 5863 5864 5863 5863 5862 5860 5859 5858 5856 5855 5853 5851 5850 5848 5846 5843 5841 5839 5836 5835 5833 5831 5828 5824
5787 5791 5795 5796 5804 5810 5815 5824 5828 5832 5836 5838 5842 5843 5845 5847 5847 5850 5852 5854 5855 5857 5858 5859 5859 5860 5859 5859 5858 5857 5855 5854 5853 5850 5849 5846 5845 5843 5842 5840 5838 5835 5832 5830 5827 5825 5821 5818 5816
5781 5786 5790 5793 5798 5803 5808 5816 5820 5825 5829 5831 5835 5837 5839 5840 5842 5845 5848 5849 5850 5851 5852 5853 5853 5854 5854 5853 5852 5850 5848 5847 5845 5843 5842 5840 5838 5837 5835 5833 5831 5828 5825 5822 5819 5816 5812 5808 5804
5774 5778 5783 5788 5793 5797 5798 5804 5809 5815 5820 5824 5828 5831 5833 5834 5837 5839 5841 5843 5844 5844 5845 5845 5846 5846 5847 5846 5845 5843 5841 5840 5837 5834 5833 5831 5829 5828 5826 5824 5821 5819 5815 5812 5809 5806 5802 5797 5792
5766 5771 5776 5781 5786 5789 5793 5798 5803 5808 5814 5819 5822 5824 5826 5828 5831 5833 5835 5836 5837 5837 5838 5838 5839 5838 5839 5838 5837 5835 5833 5831 5829 5826 5824 5823 5821 5818 5816 5813 5811 5808 5805 5801 5798 5794 5790 5785 5778
5758 5765 5769 5774 5778 5782 5787 5792 5797 5802 5806 5810 5813 5816 5819 5821 5824 5826 5829 5829 5829 5829 5830 5830 5830 5830 5830 5829 5827 5826 5824 5821 5820 5817 5815 5813 5812 5809 5806 5804 5801 5798 5794 5789 5785 5781 5777 5771 5765
5751 5757 5761 5765 5770 5774 5781 5784 5791 5794 5798 5803 5805 5808 5810 5814 5815 5817 5820 5820 5820 5820 5821 5820 5821 5820 5819 5818 5816 5815 5814 5810 5809 5807 5806 5803 5800 5798 5796 5794 5791 5786 5781 5776 5771 5767 5762 5757 5751
5745 5750 5755 5759 5762 5766 5773 5778 5783 5789 5794 5795 5799 5800 5801 5805 5806 5808 5810 5811 5811 5812 5812 5812 5811 5811 5810 5808 5806 5805 5804 5801 5799 5796 5793 5793 5789 5786 5783 5780 5776 5771 5766 5762 5757 5751 5745 5740 5735
5737 5743 5747 5753 5755 5760 5766 5769 5775 5783 5786 5789 5790 5791 5792 5795 5798 5799 5801 5802 5803 5803 5803 5803 5802 5800 5799 5797 5796 5794 5792 5789 5788 5786 5784 5780 5777 5774 5770 5766 5762 5756 5751 5746 5739 5733 5730 5725 5720
5729 5735 5742 5744 5750 5755 5757 5763 5768 5773 5778 5781 5782 5784 5785 5787 5789 5790 5791 5793 5794 5794 5794 5793 5790 5788 5788 5787 5785 5783 5779 5779 5775 5774 5770 5767 5761 5760 5756 5752 5747 5745 5740 5733 5727 5722 5717 5711 5705
5722 5726 5733 5738 5742 5747 5751 5757 5761 5765 5767 5771 5773 5775 5776 5778 5780 5781 5782 5784 5784 5784 5783 5782 5779 5778 5778 5775 5774 5772 5769 5767 5764 5761 5756 5753 5750 5747 5742 5740 5735 5732 5726 5720 5715 5710 5704 5698 5693
5715 5721 5725 5730 5735 5739 5744 5749 5755 5760 5761 5762 5764 5765 5766 5767 5769 5770 5771 5773 5774 5773 5773 5773 5768 5767 5766 5764 5764 5760 5756 5754 5752 5748 5745 5743 5739 5736 5733 5727 5722 5718 5713 5709 5703 5697 5692 5686 5678
5707 5712 5718 5723 5727 5732 5737 5741 5746 5750 5753 5755 5757 5757 5758 5759 5761 5762 5762 5762 5762 5761 5761 5760 5758 5757 5755 5754 5751 5748 5745 5742 5740 5737 5733 5729 5726 5722 5717 5714 5711 5706 5701 5696 5691 5685 5679 5673 5666
5700 5706 5712 5716 5722 5726 5729 5735 5738 5742 5744 5746 5747 5750 5751 5752 5753 5753 5753 5753 5752 5752 5751 5750 5748 5746 5744 5742 5739 5738 5735 5733 5730 5726 5722 5718 5714 5710 5707 5703 5699 5694 5690 5685 5679 5672 5665 5657 5649
Wind_Speed
27 24 22 20 19 15 16 16 17 16 15 14 13 13 13 12 10 10 10 10 11 10 9 10 9 7 6 6 6 6 5 4 3 3 3 2 1 2 2 2 3 5 5 6 7 8 9 9 7
28 26 24 22 20 18 16 16 16 17 15 14 13 12 11 13 12 10 10 10 11 10 9 9 8 7 7 6 4 4 4 3 3 2 0 0 1 2 3 4 5 6 7 8 9 10 9 8 6
29 27 26 24 22 21 17 16 17 17 15 13 14 13 12 12 12 10 9 10 10 10 8 8 7 6 6 5 4 4 5 6 4 3 2 2 2 3 4 4 6 8 9 8 9 9 8 6 4
30 27 26 26 24 22 19 17 15 16 15 14 14 13 13 12 11 10 9 8 8 8 8 8 7 7 6 5 4 2 2 4 7 6 3 2 2 3 3 5 6 8 9 10 10 10 8 7 7
30 27 27 26 24 22 22 19 16 14 14 14 14 14 12 11 12 11 9 7 7 8 8 6 6 4 4 4 4 4 4 1 5 5 7 8 8 9 9 9 10 10 10 10 10 9 9 9 11
32 29 29 28 27 24 24 22 19 16 14 15 14 14 14 13 12 10 10 8 7 6 6 5 4 3 2 2 2 2 2 3 2 4 6 8 9 11 12 14 15 15 15 14 14 14 15 16 17
33 31 31 31 29 27 26 24 23 19 17 16 16 15 15 14 13 12 10 8 8 7 6 4 2 2 1 1 3 4 4 2 3 6 6 8 8 10 11 14 15 16 16 16 17 18 19 20 22
33 32 32 32 32 31 28 25 24 22 20 19 17 17 17 16 14 13 12 9 8 8 6 5 4 3 4 5 5 7 7 6 6 7 9 11 13 13 13 14 15 16 15 15 16 17 19 20 21
34 34 34 33 33 32 29 27 25 22 21 20 19 18 18 17 16 13 11 10 9 8 7 6 5 5 6 8 9 9 9 9 10 10 10 11 13 14 15 15 16 16 16 16 16 17 15 15 16
37 36 36 35 34 31 31 29 26 23 21 19 18 17 17 17 16 13 12 11 10 9 8 8 8 7 8 9 9 11 11 13 12 13 14 13 12 13 12 12 11 11 14 17 17 16 16 17 18
39 38 38 37 36 32 31 29 27 25 21 20 18 19 18 17 17 15 14 13 11 9 10 9 9 8 8 9 10 12 13 14 15 15 14 13 13 13 12 12 11 12 13 16 15 16 14 16 16
43 40 40 39 37 36 33 31 29 26 24 22 20 19 19 19 17 17 16 13 12 12 11 11 10 10 9 10 13 13 14 15 15 16 17 15 14 14 14 13 13 14 15 14 15 15 15 17 18
47 44 42 43 41 39 36 33 30 28 25 25 23 21 20 20 20 18 17 17 16 14 13 13 12 12 12 11 13 15 16 17 17 17 17 18 16 16 15 15 15 16 15 15 16 17 17 18 19
32 53 45 46 45 42 40 37 33 30 29 28 26 25 23 23 22 21 21 20 19 18 16 16 16 15 14 14 14 16 18 19 19 19 20 19 19 18 18 18 17 18 19 19 20 21 22 24 25
32 48 60 52 48 44 43 40 36 34 30 30 30 28 27 25 26 25 23 21 22 21 21 20 20 19 17 17 17 18 19 21 23 22 22 22 22 21 21 22 22 22 23 24 24 25 26 29 30
34 33 44 58 53 46 45 43 39 38 35 31 31 30 29 29 28 27 26 25 25 26 24 24 23 22 22 20 21 21 23 23 25 26 25 24 25 25 26 28 28 27 27 28 28 28 28 30 33
27 36 33 49 60 52 50 43 42 40 38 35 33 33 31 30 30 31 30 28 28 28 27 27 26 25 24 24 25 25 27 28 28 29 29 28 27 27 29 31 33 32 32 33 34 34 32 34 38
36 28 28 31 55 55 52 47 47 44 40 38 37 36 34 34 36 34 33 31 30 29 29 30 30 29 27 27 27 28 30 31 32 33 31 30 28 28 31 34 35 36 38 40 41 41 42 44 45
37 30 25 28 40 52 55 53 50 49 45 43 41 40 39 39 38 36 35 32 32 31 32 31 33 32 32 31 31 31 32 33 36 35 33 32 35 38 38 38 39 40 42 44 47 50 53 55 55
41 39 33 32 37 38 48 54 56 54 52 47 44 43 41 41 41 40 38 35 35 35 36 35 36 36 36 36 36 36 37 37 36 37 38 40 40 41 43 44 43 44 46 49 51 55 57 59 60
45 40 40 41 43 39 35 40 41 51 48 49 50 51 48 48 47 44 40 40 38 38 39 38 40 40 40 41 41 42 42 43 40 39 39 43 45 47 48 49 49 49 51 53 55 57 59 61 63
45 44 45 45 44 42 39 38 35 32 35 40 45 42 44 45 49 46 45 45 44 44 42 42 43 43 45 45 45 44 44 48 44 44 48 51 51 50 52 51 50 54 58 60 61 62 62 66 69
46 48 49 46 43 46 41 43 38 37 35 37 40 42 39 39 38 41 48 48 46 48 49 48 47 49 49 48 50 50 53 45 50 56 55 55 57 57 59 61 62 63 65 68 68 68 71 69 69
48 50 49 47 45 49 46 43 43 39 37 39 40 38 39 39 37 38 39 45 50 50 48 53 54 52 53 54 54 54 55 58 64 59 57 60 63 64 64 66 70 72 72 75 75 68 67 68 65
51 49 49 49 48 51 47 46 47 41 38 39 40 41 41 41 44 40 37 40 43 45 48 48 52 56 60 61 59 59 60 61 57 62 61 64 67 70 69 68 71 70 72 66 62 56 61 63 63
48 48 48 48 48 49 48 47 47 45 40 36 40 43 44 43 46 47 43 42 46 44 46 51 54 51 54 58 60 62 59 73 63 68 66 72 73 77 66 60 60 57 55 57 56 55 56 57 55
46 48 48 47 47 48 50 46 44 40 38 35 34 39 43 44 46 48 45 45 47 49 47 44 45 51 60 55 56 65 63 69 73 73 66 61 59 54 52 54 55 58 56 55 55 55 55 57 59
44 41 45 46 48 48 49 51 48 41 36 32 30 31 34 38 38 40 43 46 47 47 40 45 54 53 51 58 67 67 59 50 53 53 50 51 50 50 53 54 55 57 58 58 54 54 56 58 61
41 42 42 42 44 44 46 46 43 42 41 38 33 32 34 35 32 32 33 36 36 39 43 45 48 49 48 52 54 57 58 55 47 50 51 50 50 52 55 56 57 57 54 54 57 59 60 62 66
37 34 36 40 42 42 43 43 43 43 42 43 41 35 33 31 36 36 35 37 36 37 39 42 45 47 47 43 43 45 46 46 48 49 49 51 53 54 53 52 52 53 56 58 60 64 66 67 66
Wind_Direction
181 178 170 167 169 175 177 169 166 165 171 173 172 168 165 160 157 143 129 122 123 126 126 122 126 134 143 147 151 141 140 127 98 85 89 103 77 36 23 341 339 333 329 324 329 330 327 328 322
184 182 170 166 171 176 187 176 180 168 173 173 174 176 171 161 158 147 138 131 127 127 124 118 120 130 145 159 170 173 164 160 161 153 196 339 330 334 334 330 330 324 320 320 325 324 323 322 326
187 185 174 170 175 179 182 187 192 178 177 174 173 178 177 168 165 152 146 138 133 127 118 109 106 104 107 124 158 187 201 204 198 178 197 234 289 302 310 313 317 319 319 317 311 310 308 303 297
191 187 179 178 179 179 180 182 186 181 178 180 175 174 174 169 165 152 149 151 137 128 125 114 104 93 82 74 79 100 207 214 221 229 232 236 254 280 295 293 294 301 306 306 304 304 297 292 289
196 187 190 183 183 181 179 180 182 182 177 177 178 173 169 166 159 155 151 164 151 150 138 124 108 92 79 63 59 40 29 351 228 226 232 247 259 264 269 273 276 282 284 291 296 292 285 288 297
199 190 191 188 185 181 180 180 185 184 184 176 176 168 168 168 161 161 155 166 169 171 154 146 142 136 108 46 13 19 26 358 351 261 257 258 264 274 278 278 277 273 277 282 287 293 296 295 296
198 192 195 193 188 184 184 184 182 184 188 183 178 173 172 173 171 167 166 171 179 186 187 187 197 210 239 297 314 313 315 314 303 298 291 286 287 287 289 292 291 289 287 286 282 281 284 288 293
199 194 198 196 196 185 186 190 185 186 193 190 185 179 179 179 181 181 178 176 186 193 195 206 222 248 284 295 297 299 300 305 297 285 285 289 292 292 290 290 289 285 292 299 300 293 288 289 291
201 197 200 198 201 190 187 191 194 189 196 196 191 189 187 184 189 191 186 186 198 203 210 219 226 241 261 276 286 290 299 305 313 316 312 310 303 297 294 292 289 282 281 290 297 293 296 301 303
205 202 203 199 201 197 189 192 196 196 198 197 196 195 195 192 194 192 199 197 204 211 220 229 237 246 260 272 279 290 300 306 310 311 312 312 310 304 297 289 289 274 274 290 299 298 288 291 294
205 206 206 204 201 201 195 193 198 199 200 200 201 201 199 199 199 198 206 205 209 214 226 234 244 255 266 279 284 290 299 306 308 309 308 311 313 309 300 289 289 289 287 293 297 295 295 296 295
209 212 210 209 203 201 201 199 199 202 202 203 206 211 207 209 211 207 209 215 213 217 229 242 248 257 264 274 286 290 296 300 301 302 305 306 309 310 308 305 301 297 296 297 293 292 292 291 292
217 209 214 216 207 206 205 204 201 204 205 209 209 213 215 219 218 216 215 220 224 226 229 243 251 260 271 279 287 292 294 296 295 298 299 301 302 302 304 304 303 298 294 294 292 292 290 290 289
221 209 213 219 216 208 209 208 208 206 208 213 214 215 218 223 228 226 223 226 230 234 234 239 250 257 267 275 284 291 292 294 294 292 291 292 294 295 294 292 289 288 289 289 289 291 294 294 296
221 222 208 212 220 213 212 211 212 214 212 216 219 218 220 224 229 233 234 230 234 237 239 242 248 257 262 272 281 289 293 291 290 291 289 290 287 283 282 280 280 283 283 284 285 290 294 295 294
216 216 222 213 215 217 216 212 212 216 217 219 221 223 222 226 230 234 238 238 238 241 244 248 249 256 262 271 278 285 290 294 292 292 290 288 286 284 282 281 283 282 277 278 281 283 284 284 284
205 216 223 221 220 216 220 215 214 217 219 220 225 227 228 230 231 235 237 240 244 247 250 253 256 260 264 269 276 283 288 291 295 293 292 289 287 284 282 282 281 281 279 278 277 277 277 282 283
214 206 228 224 218 217 220 217 222 219 219 222 225 229 230 235 236 237 240 241 247 252 258 260 261 263 265 268 274 281 285 288 289 290 290 284 284 282 285 284 283 282 280 279 279 276 275 280 286
216 207 218 221 215 219 223 223 222 223 222 222 226 229 232 235 241 243 244 245 247 251 255 259 263 264 265 265 269 272 277 282 286 287 284 280 282 283 286 283 283 283 284 285 282 280 280 284 285
215 222 214 212 216 227 227 224 227 224 224 224 227 230 234 238 242 245 247 249 251 252 255 257 260 262 265 266 268 271 274 278 280 279 279 279 285 287 288 286 282 284 285 286 286 283 282 283 283
213 218 226 225 224 229 224 220 226 232 231 231 231 232 234 239 241 246 248 252 254 256 258 260 263 264 265 267 268 269 273 276 276 276 278 280 284 285 284 283 281 283 287 289 290 291 290 289 287
222 222 225 228 231 235 233 230 231 227 226 230 233 236 236 239 240 245 248 251 257 258 258 260 263 265 266 267 268 271 270 270 272 272 275 279 282 284 285 284 283 285 287 287 287 288 290 286 286
228 229 231 235 237 240 238 239 225 233 233 241 240 234 235 241 243 244 244 249 255 260 262 260 262 264 265 267 268 270 270 266 272 276 279 275 279 284 287 286 287 286 286 286 285 288 289 287 289
230 231 236 237 242 241 242 243 236 234 241 246 247 251 241 245 253 250 250 248 252 259 263 265 266 266 270 271 271 269 273 273 282 282 279 278 281 285 286 284 289 284 290 289 284 286 289 291 293
232 231 233 235 239 239 241 248 246 243 245 247 253 255 257 257 255 251 255 260 258 257 269 265 266 265 268 270 272 273 276 278 277 281 281 275 273 282 284 280 283 288 290 290 285 294 291 293 297
235 233 232 236 237 240 245 245 246 255 256 253 253 252 254 258 256 256 261 264 262 262 265 268 269 261 268 269 269 276 284 274 267 279 285 282 280 278 280 286 290 288 288 295 295 295 295 296 296
230 233 237 238 242 241 241 241 245 252 259 261 255 252 255 256 258 262 263 263 266 272 274 277 276 266 273 267 276 275 272 269 268 268 274 280 283 283 286 290 293 294 296 296 296 296 296 297 297
227 231 236 241 240 244 246 245 249 256 257 256 254 252 255 258 259 260 259 260 263 266 262 263 269 272 269 262 263 272 272 269 281 284 285 286 289 294 293 295 295 296 297 298 297 298 297 298 300
226 228 233 236 237 242 244 247 245 248 250 249 255 256 257 258 260 259 257 254 254 256 255 258 264 271 272 269 271 274 279 281 280 281 283 286 287 289 291 295 297 296 296 296 297 297 297 296 297
227 228 231 236 239 241 243 245 245 245 248 252 257 257 257 260 262 264 262 256 264 264 265 267 271 272 274 276 276 275 276 279 280 283 286 288 291 293 293 292 290 291 295 297 297 296 295 294 294